TimeEDT,TemperatureF,Dew PointF,Humidity,Sea Level PressureIn,VisibilityMPH,Wind Direction,Wind SpeedMPH,Gust SpeedMPH,PrecipitationIn,Events,Conditions,WindDirDegrees,DateUTC
12:53 AM,62.1,61.0,96,29.87,5.0,South,3.5,-,N/A,,Clear,180,2013-06-24 04:53:00
1:26 AM,62.6,60.8,94,29.87,3.0,South,4.6,-,N/A,,Partly Cloudy,190,2013-06-24 05:26:00
1:38 AM,62.6,60.8,94,29.87,1.8,South,3.5,-,N/A,,Mostly Cloudy,180,2013-06-24 05:38:00
1:50 AM,62.6,60.8,94,29.87,3.0,South,4.6,-,N/A,,Scattered Clouds,190,2013-06-24 05:50:00
1:53 AM,61.0,61.0,100,29.86,4.0,South,3.5,-,N/A,,Scattered Clouds,190,2013-06-24 05:53:00
2:53 AM,61.0,60.1,97,29.86,3.0,WSW,4.6,-,N/A,,Clear,240,2013-06-24 06:53:00
3:16 AM,60.8,60.8,100,29.87,1.5,SW,3.5,-,N/A,,Partly Cloudy,230,2013-06-24 07:16:00
3:18 AM,60.8,60.8,100,29.87,0.8,WSW,3.5,-,N/A,,Mist,250,2013-06-24 07:18:00
3:30 AM,60.8,60.8,100,29.88,1.2,West,6.9,-,N/A,,Scattered Clouds,280,2013-06-24 07:30:00
3:32 AM,60.8,60.8,100,29.88,2.5,West,5.8,-,N/A,,Partly Cloudy,280,2013-06-24 07:32:00
3:39 AM,60.8,60.8,100,29.88,5.0,WNW,4.6,-,N/A,,Partly Cloudy,300,2013-06-24 07:39:00
3:53 AM,61.0,60.1,97,29.86,6.0,West,6.9,-,N/A,,Partly Cloudy,280,2013-06-24 07:53:00
4:53 AM,61.0,60.1,97,29.86,4.0,NW,5.8,-,N/A,,Overcast,320,2013-06-24 08:53:00
5:53 AM,62.1,61.0,96,29.85,4.0,Calm,Calm,-,N/A,,Partly Cloudy,0,2013-06-24 09:53:00
6:08 AM,60.8,60.8,100,29.87,1.0,SW,6.9,-,N/A,,Mist,220,2013-06-24 10:08:00
6:15 AM,60.8,59.0,94,29.87,0.2,SW,4.6,-,N/A,Fog,Fog,220,2013-06-24 10:15:00
6:34 AM,62.6,60.8,94,29.86,1.5,West,3.5,-,N/A,,Overcast,280,2013-06-24 10:34:00
6:36 AM,62.6,62.6,100,29.86,3.0,West,3.5,-,N/A,,Overcast,260,2013-06-24 10:36:00
6:51 AM,62.6,60.8,94,29.85,2.5,South,4.6,-,N/A,,Mostly Cloudy,180,2013-06-24 10:51:00
6:53 AM,62.1,61.0,96,29.84,3.0,South,4.6,-,N/A,,Mostly Cloudy,180,2013-06-24 10:53:00
7:53 AM,64.9,62.1,90,29.84,9.0,Calm,Calm,-,N/A,,Clear,0,2013-06-24 11:53:00
8:53 AM,70.0,63.0,78,29.85,10.0,WSW,4.6,-,N/A,,Clear,250,2013-06-24 12:53:00
9:53 AM,75.0,64.0,69,29.83,10.0,Variable,3.5,-,N/A,,Partly Cloudy,0,2013-06-24 13:53:00
10:53 AM,78.1,62.1,58,29.82,10.0,WSW,8.1,16.1,N/A,,Clear,250,2013-06-24 14:53:00
11:53 AM,78.1,61.0,56,29.81,10.0,West,9.2,-,N/A,,Mostly Cloudy,260,2013-06-24 15:53:00
12:53 PM,81.0,61.0,50,29.79,10.0,West,11.5,18.4,N/A,,Clear,270,2013-06-24 16:53:00
1:53 PM,78.1,61.0,56,29.77,10.0,WSW,6.9,-,N/A,,Overcast,250,2013-06-24 17:53:00
2:53 PM,75.9,60.1,58,29.77,10.0,West,10.4,-,N/A,,Overcast,260,2013-06-24 18:53:00
3:53 PM,78.1,61.0,56,29.75,10.0,West,13.8,19.6,N/A,,Overcast,260,2013-06-24 19:53:00
4:53 PM,78.1,62.1,58,29.74,10.0,West,10.4,17.3,N/A,,Mostly Cloudy,260,2013-06-24 20:53:00
5:53 PM,77.0,64.0,64,29.72,10.0,West,6.9,-,N/A,,Mostly Cloudy,280,2013-06-24 21:53:00
6:53 PM,75.9,64.0,67,29.72,10.0,West,5.8,-,N/A,,Mostly Cloudy,270,2013-06-24 22:53:00
7:53 PM,73.9,63.0,68,29.72,10.0,West,9.2,-,N/A,,Partly Cloudy,270,2013-06-24 23:53:00
8:53 PM,73.0,62.1,68,29.73,10.0,West,8.1,-,N/A,,Mostly Cloudy,270,2013-06-25 00:53:00
9:53 PM,71.1,62.1,73,29.73,10.0,West,5.8,-,N/A,,Partly Cloudy,270,2013-06-25 01:53:00
10:53 PM,70.0,63.0,78,29.73,10.0,West,4.6,-,N/A,,Clear,270,2013-06-25 02:53:00
11:53 PM,69.1,63.0,81,29.72,10.0,West,4.6,-,N/A,,Clear,280,2013-06-25 03:53:00